EW0478 Weather Reports


time (UTC)temp
F
wind
direction
speed
knots
gust
knots
rain 1hr
in
rain 24hr
in
rain mn
in
humidity
%
barometer
mb
20260510225403 68 209 0.0 0.9 0.00 0.01 0.01 67 1010.3
20260510224716 68 204 0.0 2.6 0.00 0.01 0.01 68 1010.3
20260510224526 67 192 0.0 2.6 0.00 0.01 0.01 68 1010.4
20260510223603 68 340 0.9 4.3 0.00 0.01 0.01 67 1010.1
20260510223011 68 243 0.0 4.3 0.00 0.01 0.01 67 1010.1
20260510222703 68 281 0.0 3.5 0.00 0.01 0.01 68 1010.0
20260510221803 68 336 1.7 7.8 0.00 0.01 0.01 68 1009.8
20260510221504 67 360 1.7 7.0 0.00 0.01 0.01 68 1009.8
20260510220903 68 357 0.9 7.8 0.00 0.01 0.01 69 1009.6
20260510220012 68 323 0.0 6.1 0.00 0.01 0.01 68 1009.8
20260510220003 68 352 0.9 6.1 0.00 0.01 0.01 69 1009.7
20260510215616 68 347 0.9 6.1 0.00 0.01 0.01 69 1009.7
20260510214718 69 350 0.9 4.3 0.00 0.01 0.01 68 1009.6
20260510214512 68 316 0.0 4.3 0.00 0.04 0.01 68 1009.7
20260510213603 69 339 0.9 3.5 0.00 0.01 0.01 66 1009.6
20260510213004 69 317 0.9 5.2 0.00 0.04 0.01 66 1009.8
20260510212916 69 347 0.9 5.2 0.00 0.01 0.01 66 1009.6
20260510212018 70 349 1.7 7.0 0.00 0.02 0.01 65 1009.5
20260510211510 69 51 1.7 7.0 0.00 0.04 0.01 64 1009.6
20260510210903 70 337 2.6 8.7 0.00 0.03 0.01 64 1009.3
20260510210018 71 326 0.9 5.2 0.00 0.04 0.01 62 1009.2
20260510210003 71 348 1.7 6.1 0.00 0.04 0.01 62 1009.1
20260510205403 72 341 2.6 8.7 0.00 0.04 0.01 60 1009.1
20260510204505 72 328 2.6 7.0 0.00 0.04 0.01 58 1009.2
20260510204503 73 337 1.7 7.0 0.00 0.04 0.01 58 1009.1
20260510203817 74 337 1.7 6.1 0.00 0.04 0.01 56 1009.0
20260510203012 74 314 0.9 6.1 0.00 0.04 0.01 55 1008.9
20260510202703 75 349 0.9 7.0 0.00 0.04 0.01 55 1008.8
20260510201803 77 334 0.9 4.3 0.00 0.04 0.01 54 1008.8
20260510201511 76 329 0.0 3.5 0.00 0.04 0.01 54 1008.9
20260510200903 77 254 0.9 3.5 0.00 0.04 0.01 54 1008.9
20260510200011 77 229 0.0 3.5 0.00 0.04 0.01 57 1008.9
20260510200003 78 312 0.9 3.5 0.00 0.04 0.01 57 1008.8
20260510195403 77 313 0.0 2.6 0.00 0.04 0.01 55 1008.9
20260510194507 77 22 1.7 6.1 0.00 0.04 0.01 53 1009.1
20260510194503 77 295 0.9 5.2 0.00 0.04 0.01 53 1009.0
20260510193603 78 320 0.9 4.3 0.00 0.04 0.01 54 1009.0
20260510193010 78 340 1.7 4.3 0.00 0.04 0.01 53 1009.2
20260510192703 78 312 0.9 5.2 0.00 0.04 0.01 56 1009.1
20260510191803 77 345 1.7 7.0 0.00 0.04 0.01 56 1009.1
20260510191606 77 230 1.7 7.0 0.00 0.04 0.01 55 1009.2
20260510191117 78 339 0.9 6.1 0.00 0.04 0.01 56 1009.1
20260510190005 77 10 0.0 6.1 0.00 0.04 0.01 54 1009.3
20260510190003 77 308 0.9 4.3 0.00 0.04 0.01 54 1009.2
20260510185403 77 300 0.9 4.3 0.00 0.04 0.01 53 1009.1
20260510184717 76 290 0.9 4.3 0.00 0.04 0.01 55 1009.2
20260510184508 76 18 0.9 4.3 0.00 0.04 0.01 55 1009.4
20260510183818 76 319 0.9 4.3 0.00 0.04 0.01 55 1009.3
20260510183008 76 294 0.0 4.3 0.00 0.04 0.01 55 1009.3
20260510182703 77 285 1.7 6.1 0.00 0.04 0.01 55 1009.2
20260510181803 78 266 0.9 6.1 0.00 0.04 0.01 54 1009.2
20260510181519 77 320 0.9 4.3 0.00 0.04 0.01 54 1009.3
20260510180903 78 329 0.0 4.3 0.00 0.04 0.01 56 1009.2
20260510180007 77 277 0.0 6.1 0.00 0.04 0.01 53 1009.3
20260510180003 78 324 0.9 7.0 0.00 0.04 0.01 53 1009.2
20260510175403 78 329 1.7 9.6 0.00 0.04 0.01 53 1009.2
20260510174716 78 322 0.9 4.3 0.00 0.04 0.01 60 1009.1
20260510174510 77 38 0.9 4.3 0.00 0.04 0.01 57 1009.2
20260510173603 77 292 0.9 4.3 0.00 0.04 0.01 56 1009.2
20260510173009 78 252 0.0 4.3 0.00 0.04 0.01 59 1009.2
20260510172703 78 217 1.7 7.0 0.00 0.04 0.01 57 1009.1
20260510171803 77 324 1.7 7.0 0.00 0.04 0.01 59 1009.0
20260510171512 77 303 0.9 7.0 0.00 0.04 0.01 60 1009.1
20260510170903 76 293 0.9 3.5 0.00 0.04 0.01 62 1008.9
20260510170012 75 42 0.9 3.5 0.00 0.04 0.01 62 1009.1
20260510170003 76 215 1.7 4.3 0.00 0.04 0.01 62 1009.0
20260510165403 76 236 0.9 3.5 0.00 0.04 0.01 66 1009.1
20260510164503 73 121 2.6 6.1 0.00 0.04 0.01 68 1009.2
20260510163603 74 133 1.7 3.5 0.00 0.04 0.01 69 1009.2
20260510163004 73 237 0.9 2.6 0.00 0.04 0.01 70 1009.4
20260510162917 74 199 0.9 2.6 0.00 0.04 0.01 70 1009.4
20260510161803 72 52 0.9 2.6 0.00 0.04 0.01 72 1009.3
20260510161506 71 24 0.9 2.6 0.00 0.04 0.01 76 1009.4
20260510160903 70 137 1.7 3.5 0.00 0.04 0.01 77 1009.4
20260510160017 70 248 1.7 4.3 0.00 0.04 0.01 77 1009.3
20260510160003 70 160 0.9 3.5 0.00 0.04 0.01 77 1009.2
20260510155403 69 139 0.9 2.6 0.00 0.04 0.01 80 1009.5
20260510154509 67 170 0.0 5.2 0.00 0.04 0.01 81 1009.9
20260510154503 68 118 1.7 5.2 0.00 0.04 0.01 81 1009.7
20260510153603 68 185 1.7 4.3 0.00 0.04 0.01 81 1009.8
20260510153015 67 243 0.9 4.3 0.00 0.04 0.01 81 1009.8
20260510152703 68 147 0.9 3.5 0.00 0.04 0.01 83 1009.7
20260510151803 67 146 0.9 4.3 0.00 0.04 0.01 83 1009.7
20260510151610 66 105 0.0 3.5 0.00 0.04 0.01 85 1009.9
20260510150903 66 137 0.9 3.5 0.00 0.04 0.01 85 1009.9
20260510150005 64 288 0.0 2.6 0.00 0.04 0.01 88 1009.9
20260510150003 65 133 0.9 3.5 0.00 0.04 0.01 88 1009.7
20260510145403 64 143 0.9 3.5 0.00 0.04 0.01 88 1009.8
20260510144510 62 118 0.0 2.6 0.00 0.04 0.01 92 1009.9
20260510144503 63 123 0.9 2.6 0.00 0.04 0.01 92 1009.8
20260510143817 62 112 0.9 2.6 0.00 0.04 0.01 91 1009.7
20260510143008 60 194 0.0 1.7 0.00 0.04 0.01 94 1010.0
20260510142703 60 152 0.9 1.7 0.00 0.04 0.01 94 1009.9
20260510142017 60 159 0.9 1.7 0.00 0.04 0.01 95 1009.8
20260510141510 59 219 0.0 1.7 0.00 0.04 0.01 96 1009.9
20260510140903 59 134 0.0 1.7 0.00 0.04 0.01 97 1009.7
20260510140003 58 122 0.9 2.6 0.00 0.04 0.01 97 1009.8
20260510135618 57 120 0.0 2.6 0.00 0.04 0.01 97 1009.8
20260510134506 56 212 0.0 0.0 0.00 0.04 0.01 98 1009.8
20260510134503 57 0 0.0 0.0 0.00 0.04 0.01 98 1009.7
20260510133603 56 0 0.0 0.0 0.00 0.04 0.01 98 1009.7
20260510133006 55 250 0.0 0.0 0.00 0.04 0.01 98 1009.9
20260510132703 55 0 0.0 0.0 0.00 0.04 0.01 98 1009.9
20260510131803 55 0 0.0 0.0 0.00 0.04 0.01 98 1009.9
20260510131510 54 300 0.0 0.0 0.00 0.04 0.01 98 1010.1
20260510130903 54 0 0.0 0.0 0.00 0.04 0.01 98 1009.9
20260510130011 54 195 0.0 0.0 0.00 0.04 0.01 98 1010.1
20260510130003 54 0 0.0 0.0 0.00 0.04 0.01 98 1010.0
20260510125403 54 0 0.0 0.0 0.00 0.04 0.01 98 1009.9
20260510124512 53 260 0.0 0.0 0.00 0.04 0.01 98 1009.8
20260510124503 54 0 0.0 0.0 0.00 0.04 0.01 98 1009.7
20260510123603 53 0 0.0 0.0 0.00 0.04 0.01 98 1009.4
20260510123007 53 213 0.0 0.0 0.00 0.04 0.01 98 1009.5
20260510122703 53 131 0.0 2.6 0.00 0.04 0.01 98 1009.3
20260510122017 53 131 0.0 2.6 0.00 0.04 0.01 98 1009.5
20260510121508 52 117 0.0 0.0 0.00 0.04 0.01 98 1009.4
20260510120903 53 0 0.0 0.0 0.00 0.04 0.01 98 1009.4
20260510120014 52 355 0.0 0.0 0.00 0.04 0.01 98 1009.2
20260510120003 53 0 0.0 0.0 0.00 0.04 0.01 98 1009.1
20260510115403 52 0 0.0 0.0 0.00 0.04 0.01 98 1009.1
20260510114503 52 355 0.0 0.0 0.00 0.04 0.01 98 1009.2
20260510113603 52 0 0.0 0.0 0.00 0.04 0.01 98 1009.1
20260510113006 51 355 0.0 0.0 0.00 0.04 0.01 98 1009.2
20260510112703 52 0 0.0 0.0 0.00 0.04 0.01 98 1009.0
20260510111803 51 0 0.0 0.0 0.00 0.04 0.01 98 1009.1
20260510111508 51 356 0.0 0.0 0.00 0.04 0.01 98 1009.2
20260510110903 51 0 0.0 0.0 0.00 0.04 0.01 98 1009.0
20260510110015 51 355 0.0 0.0 0.00 0.04 0.01 98 1009.0
20260510110003 52 0 0.0 0.0 0.00 0.04 0.01 98 1008.9
20260510105403 51 0 0.0 0.0 0.00 0.04 0.01 98 1008.8
20260510104528 51 354 0.0 0.0 0.00 0.04 0.01 98 1008.7
20260510104503 51 0 0.0 0.0 0.00 0.04 0.01 98 1008.6
20260510103603 51 0 0.0 0.0 0.00 0.04 0.01 98 1008.6
20260510103012 51 356 0.0 0.0 0.00 0.04 0.01 98 1008.5
20260510102703 51 0 0.0 0.0 0.00 0.04 0.01 98 1008.5
20260510101803 51 0 0.0 0.0 0.00 0.04 0.01 98 1008.3
20260510101504 51 356 0.0 0.0 0.00 0.04 0.01 98 1008.5
20260510100903 51 0 0.0 0.0 0.00 0.04 0.01 98 1008.3
20260510100008 51 356 0.0 0.0 0.00 0.04 0.01 98 1008.5
20260510100004 51 0 0.0 0.0 0.00 0.04 0.01 98 1008.4
20260510095403 51 25 0.0 2.6 0.00 0.04 0.01 98 1008.2
20260510094528 51 25 0.0 2.6 0.00 0.04 0.01 98 1008.5
20260510094503 51 22 0.0 2.6 0.00 0.04 0.01 98 1008.4
20260510093603 51 357 0.0 2.6 0.00 0.04 0.01 98 1008.2
20260510093011 51 9 0.9 3.5 0.00 0.04 0.01 98 1008.6
20260510092703 51 0 0.0 0.0 0.00 0.04 0.01 98 1008.3
20260510091803 51 0 0.0 0.0 0.00 0.04 0.01 98 1008.4
20260510091506 50 351 0.0 0.0 0.00 0.04 0.01 98 1008.5
20260510090903 51 0 0.0 0.0 0.00 0.04 0.01 98 1008.4
20260510090006 50 119 0.0 2.6 0.00 0.04 0.01 98 1008.6
20260510090003 50 341 0.0 3.5 0.00 0.04 0.01 98 1008.5
20260510085403 50 349 0.0 3.5 0.00 0.04 0.01 98 1008.6
20260510084507 49 329 0.0 1.7 0.00 0.04 0.01 98 1008.7
20260510084503 50 332 0.0 1.7 0.00 0.04 0.01 98 1008.6
20260510083603 49 52 0.0 2.6 0.00 0.04 0.01 98 1008.5
20260510083010 49 274 0.0 2.6 0.00 0.04 0.01 98 1008.5
20260510082703 49 0 0.0 0.0 0.00 0.04 0.01 98 1008.2
20260510081803 49 0 0.0 0.0 0.00 0.04 0.01 98 1007.8
20260510081604 49 338 0.0 0.0 0.00 0.04 0.01 98 1007.9
20260510080904 49 0 0.0 0.0 0.00 0.04 0.01 98 1007.8
20260510080007 49 338 0.0 0.0 0.00 0.04 0.01 98 1008.0
20260510080003 49 0 0.0 0.0 0.00 0.04 0.01 98 1007.8
20260510075403 49 0 0.0 0.0 0.00 0.04 0.01 98 1007.7
20260510074512 48 338 0.0 0.0 0.00 0.04 0.01 98 1007.8
20260510074503 49 0 0.0 0.0 0.00 0.04 0.01 98 1007.7
20260510073603 49 0 0.0 0.0 0.01 0.04 0.01 98 1007.8
20260510073005 48 338 0.0 0.0 0.01 0.04 0.01 97 1007.8
20260510072703 49 0 0.0 0.0 0.01 0.04 0.01 97 1007.7
20260510071803 49 0 0.0 0.0 0.01 0.04 0.01 97 1007.6
20260510071508 48 338 0.0 0.0 0.01 0.04 0.01 97 1007.8
20260510071118 49 0 0.0 0.0 0.01 0.04 0.01 97 1007.5
20260510070016 49 338 0.0 1.7 0.01 0.04 0.01 97 1007.6
20260510070003 49 355 0.0 1.7 0.01 0.04 0.01 97 1007.5
20260510065403 49 3 0.0 0.9 0.01 0.04 0.01 97 1007.4
20260510064511 49 4 0.0 0.9 0.01 0.04 0.01 97 1007.5
20260510064503 49 1 0.0 0.9 0.01 0.04 0.01 97 1007.4
20260510063604 49 0 0.0 0.0 0.00 0.03 0.00 97 1007.2
20260510063013 49 87 0.0 0.0 0.00 0.03 0.00 97 1007.4
20260510062703 49 0 0.0 0.0 0.00 0.03 0.00 97 1007.3
20260510061803 49 0 0.0 0.0 0.00 0.03 0.00 97 1007.3
20260510061521 48 87 0.0 0.0 0.00 0.03 0.00 97 1007.5
20260510060903 49 0 0.0 0.0 0.00 0.03 0.00 97 1007.4
20260510060217 49 0 0.0 0.0 0.00 0.03 0.00 97 1007.3
20260510060006 48 87 0.0 0.0 0.00 0.03 0.00 97 1007.5
20260510055403 49 0 0.0 0.0 0.00 0.03 0.00 97 1007.4
20260510054507 48 87 0.0 0.0 0.00 0.03 0.00 97 1007.6
20260510054503 49 0 0.0 0.0 0.00 0.03 0.00 97 1007.5
20260510053603 49 0 0.0 0.0 0.00 0.03 0.00 97 1007.5
20260510053107 48 87 0.0 0.0 0.00 0.03 0.00 97 1007.7
20260510052703 49 0 0.0 0.0 0.00 0.03 0.00 97 1007.5
20260510051803 48 0 0.0 0.0 0.00 0.03 0.00 97 1007.6
20260510051607 48 87 0.0 0.0 0.00 0.03 0.00 97 1007.8
20260510050903 48 0 0.0 0.0 0.00 0.03 0.00 97 1007.7
20260510050010 48 87 0.0 0.0 0.00 0.03 0.00 97 1007.9
20260510050003 48 0 0.0 0.0 0.00 0.03 0.00 97 1007.7
20260510045616 48 0 0.0 0.0 0.00 0.03 0.00 97 1007.7
20260510044510 47 87 0.0 0.0 0.00 0.03 0.00 97 1007.9
20260510044503 48 0 0.0 0.0 0.00 0.03 0.00 97 1007.8
20260510043603 47 0 0.0 0.0 0.00 0.03 0.00 97 1007.8
20260510043019 47 87 0.0 0.0 0.00 0.03 0.00 97 1007.9
20260510042703 47 0 0.0 0.0 0.00 0.03 0.00 97 1007.8
20260510041804 47 0 0.0 0.0 0.00 0.03 0.00 97 1007.8
20260510041505 46 87 0.0 0.0 0.00 0.03 0.00 97 1007.9
20260510041117 46 0 0.0 0.0 0.00 0.03 0.00 97 1007.8
20260510040104 46 87 0.0 0.0 0.00 0.03 0.00 97 1008.0
20260510040004 46 0 0.0 0.0 0.00 0.03 0.00 97 1007.9
20260510035403 46 0 0.0 0.0 0.00 0.03 0.03 97 1007.8
20260510034506 45 87 0.0 0.0 0.00 0.03 0.03 97 1007.7
20260510034503 46 0 0.0 0.0 0.00 0.03 0.03 97 1007.6
20260510033603 46 0 0.0 0.0 0.00 0.03 0.03 97 1007.6
20260510033009 46 87 0.0 0.0 0.00 0.03 0.03 97 1007.7
20260510032703 46 0 0.0 0.0 0.00 0.03 0.03 97 1007.5
20260510031803 46 0 0.0 0.0 0.00 0.03 0.03 97 1007.5
20260510031511 46 87 0.0 0.0 0.00 0.03 0.03 96 1007.6
20260510030903 46 0 0.0 0.0 0.00 0.03 0.03 96 1007.5
20260510030009 46 87 0.0 0.0 0.00 0.03 0.03 96 1007.6
20260510030004 47 0 0.0 0.0 0.00 0.03 0.03 96 1007.5
20260510025403 47 0 0.0 0.0 0.00 0.03 0.03 96 1007.5
20260510024506 47 87 0.0 0.0 0.00 0.03 0.03 96 1007.5
20260510024503 47 0 0.0 0.0 0.00 0.03 0.03 96 1007.3
20260510023818 47 0 0.0 0.0 0.00 0.03 0.03 96 1007.3
20260510023009 47 87 0.0 0.0 0.00 0.03 0.03 96 1007.6
20260510022703 47 0 0.0 0.0 0.00 0.03 0.03 96 1007.4
20260510021803 48 0 0.0 0.0 0.00 0.03 0.03 96 1007.3
20260510021515 47 87 0.0 0.0 0.00 0.03 0.03 96 1007.4
20260510021116 48 0 0.0 0.0 0.00 0.03 0.03 96 1007.3
20260510020013 48 87 0.0 0.0 0.00 0.03 0.03 96 1007.5
20260510020003 48 0 0.0 0.0 0.00 0.03 0.03 96 1007.4
20260510015617 48 0 0.0 0.0 0.00 0.03 0.03 96 1007.4
20260510014506 48 87 0.0 0.0 0.00 0.03 0.03 96 1007.5
20260510014503 49 0 0.0 0.0 0.00 0.03 0.03 96 1007.4
20260510013603 49 0 0.0 0.0 0.00 0.03 0.03 95 1007.4
20260510013009 49 87 0.0 0.0 0.00 0.03 0.03 95 1007.4
20260510012703 50 0 0.0 0.0 0.00 0.03 0.03 95 1007.3
20260510011803 50 0 0.0 0.0 0.00 0.03 0.03 95 1007.3
20260510011510 50 87 0.0 0.0 0.00 0.03 0.03 95 1007.4
20260510010903 50 0 0.0 0.0 0.00 0.03 0.03 95 1007.3
20260510010103 50 87 0.0 0.0 0.00 0.03 0.03 95 1007.2
20260510010003 50 0 0.0 0.0 0.00 0.03 0.03 95 1007.1
20260510005403 51 0 0.0 0.0 0.00 0.03 0.03 95 1007.1
20260510004718 51 0 0.0 0.0 0.00 0.03 0.03 94 1007.0
20260510004507 51 87 0.0 0.0 0.00 0.03 0.03 94 1007.0
20260510003603 52 0 0.0 0.0 0.00 0.03 0.03 94 1006.8
20260510003011 52 87 0.0 0.0 0.00 0.03 0.03 94 1007.0
20260510002703 52 0 0.0 0.0 0.00 0.03 0.03 94 1006.8
20260510001803 52 0 0.0 0.0 0.00 0.03 0.03 93 1006.7
20260510001509 52 87 0.0 0.0 0.00 0.03 0.03 93 1006.8
20260510000903 53 0 0.0 0.0 0.00 0.03 0.03 93 1006.8
20260510000019 53 87 0.0 0.0 0.00 0.03 0.03 93 1006.7
20260510000003 54 0 0.0 0.0 0.00 0.03 0.03 93 1006.6
20260509235403 54 0 0.0 0.0 0.00 0.03 0.03 92 1006.6
20260509234718 55 0 0.0 0.0 0.00 0.03 0.03 92 1006.6
20260509234509 54 87 0.0 0.0 0.00 0.03 0.03 92 1006.7
20260509233603 55 0 0.0 0.0 0.00 0.03 0.03 91 1006.7
20260509233009 55 87 0.0 0.0 0.00 0.03 0.03 91 1006.7
20260509232703 56 0 0.0 0.0 0.00 0.03 0.03 90 1006.6
20260509231803 56 0 0.0 0.0 0.00 0.03 0.03 89 1006.6
20260509231511 56 87 0.0 0.0 0.00 0.03 0.03 89 1006.6
20260509230903 57 87 0.0 0.9 0.00 0.03 0.03 89 1006.6
20260509230004 57 87 0.0 0.9 0.00 0.03 0.03 89 1006.7